TimeCST,TemperatureF,Dew PointF,Humidity,Sea Level PressureIn,VisibilityMPH,Wind Direction,Wind SpeedMPH,Gust SpeedMPH,PrecipitationIn,Events,Conditions,WindDirDegrees,DateUTC
12:15 AM,30.2,26.6,86,30.15,7.0,NW,5.8,-,N/A,,Clear,320,2013-01-17 06:15:00
12:55 AM,28.4,26.6,93,30.15,6.0,NW,3.5,-,N/A,,Clear,320,2013-01-17 06:55:00
1:15 AM,28.4,26.6,93,30.14,7.0,NNW,3.5,-,N/A,,Clear,330,2013-01-17 07:15:00
1:35 AM,28.4,26.6,93,30.14,6.0,NNW,4.6,-,N/A,,Clear,330,2013-01-17 07:35:00
1:55 AM,28.4,26.6,93,30.14,7.0,NNW,5.8,-,N/A,,Clear,340,2013-01-17 07:55:00
2:15 AM,28.4,26.6,93,30.14,7.0,NNW,3.5,-,N/A,,Clear,340,2013-01-17 08:15:00
2:35 AM,28.4,24.8,86,30.13,7.0,North,5.8,-,N/A,,Clear,350,2013-01-17 08:35:00
2:55 AM,28.4,24.8,86,30.13,7.0,NNW,6.9,-,N/A,,Clear,340,2013-01-17 08:55:00
3:15 AM,28.4,24.8,86,30.12,8.0,North,5.8,-,N/A,,Clear,350,2013-01-17 09:15:00
3:35 AM,28.4,24.8,86,30.13,10.0,North,5.8,-,N/A,,Clear,350,2013-01-17 09:35:00
3:55 AM,28.4,23.0,80,30.12,10.0,NNW,6.9,-,N/A,,Clear,340,2013-01-17 09:55:00
4:15 AM,28.4,23.0,80,30.13,10.0,Calm,Calm,-,N/A,,Clear,0,2013-01-17 10:15:00
4:35 AM,26.6,23.0,86,30.13,10.0,Calm,Calm,-,N/A,,Scattered Clouds,0,2013-01-17 10:35:00
4:55 AM,28.4,23.0,80,30.13,10.0,Calm,Calm,-,N/A,,Overcast,0,2013-01-17 10:55:00
5:15 AM,28.4,23.0,80,30.13,10.0,Calm,Calm,-,N/A,,Overcast,0,2013-01-17 11:15:00
5:35 AM,28.4,23.0,80,30.13,10.0,North,4.6,-,N/A,,Overcast,350,2013-01-17 11:35:00
5:55 AM,28.4,23.0,80,30.15,10.0,NNW,4.6,-,N/A,,Overcast,330,2013-01-17 11:55:00
6:15 AM,30.2,24.8,80,30.16,10.0,NNW,4.6,-,N/A,,Overcast,330,2013-01-17 12:15:00
6:35 AM,30.2,24.8,80,30.15,10.0,North,5.8,-,N/A,,Overcast,350,2013-01-17 12:35:00
6:55 AM,30.2,24.8,80,30.17,10.0,NNW,6.9,-,N/A,,Overcast,340,2013-01-17 12:55:00
7:15 AM,32.0,24.8,75,30.17,10.0,North,9.2,-,N/A,,Overcast,350,2013-01-17 13:15:00
7:35 AM,32.0,24.8,75,30.18,10.0,North,10.4,-,N/A,,Overcast,350,2013-01-17 13:35:00
7:55 AM,32.0,24.8,75,30.19,10.0,North,9.2,-,N/A,,Overcast,360,2013-01-17 13:55:00
8:15 AM,32.0,24.8,75,30.20,10.0,North,9.2,-,N/A,,Overcast,360,2013-01-17 14:15:00
8:35 AM,32.0,24.8,75,30.20,10.0,NNE,9.2,-,N/A,,Overcast,20,2013-01-17 14:35:00
8:55 AM,32.0,24.8,75,30.20,10.0,North,11.5,-,N/A,,Scattered Clouds,10,2013-01-17 14:55:00
9:15 AM,33.8,24.8,70,30.21,10.0,North,10.4,16.1,N/A,,Clear,10,2013-01-17 15:15:00
9:55 AM,35.6,26.6,70,30.21,10.0,North,8.1,-,N/A,,Clear,10,2013-01-17 15:55:00
10:15 AM,37.4,26.6,65,30.21,10.0,NNE,10.4,-,N/A,,Clear,20,2013-01-17 16:15:00
10:35 AM,37.4,26.6,65,30.21,10.0,NNE,6.9,-,N/A,,Clear,20,2013-01-17 16:35:00
10:55 AM,39.2,28.4,65,30.21,10.0,NNE,15.0,19.6,N/A,,Clear,20,2013-01-17 16:55:00
11:15 AM,41.0,30.2,65,30.20,10.0,North,13.8,20.7,N/A,,Clear,360,2013-01-17 17:15:00
11:35 AM,41.0,30.2,65,30.19,10.0,North,13.8,17.3,N/A,,Clear,360,2013-01-17 17:35:00
11:55 AM,41.0,30.2,65,30.19,10.0,North,15.0,-,N/A,,Clear,10,2013-01-17 17:55:00
12:15 PM,41.0,30.2,65,30.18,10.0,North,13.8,19.6,N/A,,Clear,360,2013-01-17 18:15:00
12:35 PM,42.8,32.0,66,30.18,10.0,North,13.8,20.7,N/A,,Clear,360,2013-01-17 18:35:00
12:55 PM,44.6,32.0,61,30.18,10.0,North,15.0,21.9,N/A,,Clear,350,2013-01-17 18:55:00
1:15 PM,44.6,32.0,61,30.18,10.0,North,18.4,24.2,N/A,,Clear,10,2013-01-17 19:15:00
1:35 PM,44.6,32.0,61,30.18,10.0,NNW,17.3,23.0,N/A,,Clear,340,2013-01-17 19:35:00
1:55 PM,46.4,32.0,57,30.19,10.0,NNW,19.6,23.0,N/A,,Clear,340,2013-01-17 19:55:00
2:15 PM,46.4,32.0,57,30.20,10.0,North,20.7,26.5,N/A,,Scattered Clouds,350,2013-01-17 20:15:00
2:35 PM,46.4,32.0,57,30.21,10.0,North,15.0,24.2,N/A,,Mostly Cloudy,350,2013-01-17 20:35:00
2:55 PM,44.6,32.0,61,30.23,10.0,North,16.1,24.2,N/A,,Mostly Cloudy,350,2013-01-17 20:55:00
3:15 PM,44.6,32.0,61,30.23,10.0,North,17.3,25.3,N/A,,Clear,360,2013-01-17 21:15:00
3:55 PM,42.8,32.0,66,30.27,10.0,NNW,12.7,23.0,N/A,,Scattered Clouds,340,2013-01-17 21:55:00
4:35 PM,41.0,32.0,70,30.30,10.0,NNW,13.8,19.6,N/A,,Partly Cloudy,340,2013-01-17 22:35:00
4:55 PM,39.2,32.0,75,30.33,10.0,NNW,11.5,-,N/A,,Clear,340,2013-01-17 22:55:00
5:15 PM,39.2,32.0,75,30.34,10.0,NW,10.4,-,N/A,,Partly Cloudy,320,2013-01-17 23:15:00
5:35 PM,37.4,32.0,81,30.35,10.0,NNW,12.7,-,N/A,,Partly Cloudy,330,2013-01-17 23:35:00
5:55 PM,37.4,32.0,81,30.36,10.0,NNW,12.7,17.3,N/A,,Mostly Cloudy,330,2013-01-17 23:55:00
6:15 PM,37.4,30.2,75,30.38,10.0,NNW,11.5,-,N/A,,Overcast,330,2013-01-18 00:15:00
6:35 PM,35.6,28.4,75,30.39,10.0,NNW,10.4,-,N/A,,Scattered Clouds,330,2013-01-18 00:35:00
6:55 PM,35.6,28.4,75,30.40,10.0,NNW,8.1,-,N/A,,Partly Cloudy,340,2013-01-18 00:55:00
7:15 PM,35.6,28.4,75,30.41,10.0,NNW,9.2,-,N/A,,Clear,330,2013-01-18 01:15:00
7:35 PM,35.6,26.6,70,30.43,10.0,NNW,9.2,-,N/A,,Clear,330,2013-01-18 01:35:00
7:55 PM,33.8,26.6,75,30.44,10.0,NNW,6.9,-,N/A,,Clear,330,2013-01-18 01:55:00
8:15 PM,32.0,26.6,80,30.45,10.0,NNW,6.9,-,N/A,,Clear,330,2013-01-18 02:15:00
8:35 PM,32.0,26.6,80,30.46,10.0,NNW,8.1,-,N/A,,Clear,330,2013-01-18 02:35:00
8:55 PM,32.0,26.6,80,30.47,10.0,NNW,6.9,-,N/A,,Clear,330,2013-01-18 02:55:00
9:15 PM,32.0,26.6,80,30.47,10.0,NNW,6.9,-,N/A,,Clear,330,2013-01-18 03:15:00
9:35 PM,32.0,26.6,80,30.47,10.0,NNW,5.8,-,N/A,,Clear,330,2013-01-18 03:35:00
9:55 PM,32.0,26.6,80,30.47,10.0,NNW,6.9,-,N/A,,Clear,340,2013-01-18 03:55:00
11:15 PM,30.2,24.8,80,30.47,10.0,North,5.8,-,N/A,,Clear,350,2013-01-18 05:15:00
11:35 PM,28.4,24.8,86,30.47,10.0,North,6.9,-,N/A,,Clear,350,2013-01-18 05:35:00
11:55 PM,28.4,24.8,86,30.48,10.0,NNW,5.8,-,N/A,,Clear,340,2013-01-18 05:55:00